Regional Weather Roundup
Issued by NWS San Angelo, TX

Home | Current Version | Previous Version | Graphics & Text | Print | Product List | Glossary Off
Versions: 1 2 3 4 5 6 7 8 9 10 11 12 13 14 15 16 17 18 19 20 21 22 23 24 25 26 27 28 29 30 31 32 33 34 35 36 37 38 39 40 41 42 43 44 45 46 47 48 49 50

000
ASUS44 KSJT 280810
RWRSJT
WEST CENTRAL TEXAS REGIONAL WEATHER ROUNDUP
NATIONAL WEATHER SERVICE SAN ANGELO TX
300 AM CDT TUE JUL 28 2015

NOTE: "FAIR" INDICATES FEW OR NO CLOUDS BELOW 12,000 FEET WITH NO
SIGNIFICANT WEATHER AND/OR OBSTRUCTIONS TO VISIBILITY.

TXZ049-054-064>066-071>073-076>078-098-099-113-114-127-128-139-140-
154-155-168>170-280900
...LOCATIONS ACROSS WEST CENTRAL TEXAS...

CITY           SKY/WX    TMP DP  RH WIND       PRES   REMARKS
SAN ANGELO     CLEAR     82  64  54 S14       29.93S
ABILENE        CLEAR     80  65  59 S12       29.94S
DYESS AFB      CLEAR     80  66  63 S13       29.92S
JUNCTION       CLEAR     79  70  74 S12       29.96F
SWEETWATER     CLEAR     81  63  54 SE12      29.98S
BROWNWOOD      PTCLDY    79  68  69 S5        29.94F
COLEMAN        SUNNY     80  67  66 S7        29.95F
SONORA         CLEAR     81  68  65 S9        30.00S
OZONA          FAIR      79  61  53 S6        29.99S
BRADY          CLEAR     79  68  69 SE8       29.96S
$$

TEXAS PANHANDLE/OKLAHOMA PANHANDLE

CITY           SKY/WX    TMP DP  RH WIND       PRES   REMARKS
AMARILLO       CLEAR     78  62  57 S20       29.99F
BORGER         CLEAR     80  64  58 S15G28    29.94F
CANADIAN       CLEAR     81  65  59 S16G25    29.90S
DALHART        MOCLDY    75  61  61 SW6       29.99S
DUMAS          MOSUNNY   74  62  64 S12       29.97F
GUYMON         NOT AVBL
HEREFORD       MOSUNNY   76  64  66 MISG      30.01F
PAMPA          SUNNY     76  62  61 S14       29.98F
PERRYTON       CLEAR     80  63  55 S15       29.93S
$$

SOUTHERN PANHANDLE/SOUTH PLAINS/ROLLING PLAINS

CITY           SKY/WX    TMP DP  RH WIND       PRES   REMARKS
LUBBOCK        PTCLDY    75  63  66 SE9       29.97F
SNYDER         CLEAR     79  63  58 S7        29.96S
CHILDRESS      CLEAR     80  63  55 S9        29.91F
SEMINOLE       SUNNY     77  56  49 S3        30.00S
$$

PERMIAN BASIN

CITY           SKY/WX    TMP DP  RH WIND       PRES   REMARKS
MIDLAND        CLEAR     81  60  48 S8        29.96S
ODESSA         CLEAR     83  58  42 S10       29.97S
WINK           CLEAR     83  59  44 S10       29.94S
$$

FAR WEST/SOUTHWEST MOUNTAINS/TRANS PECOS

CITY           SKY/WX    TMP DP  RH WIND       PRES   REMARKS
ALPINE         SUNNY     67  59  75 S6        30.13F
DRYDEN           N/A     84  65  52 SE10G16   29.93S
EL PASO        MOCLDY    85  55  35 S13       30.01R
FORT STOCKTON  LGT RAIN  81  60  48 SE16      29.96S
GUADALUPE PASS PTCLDY    75  55  49 SW9       30.13F
MARFA          CLEAR     64  61  88 N6        30.12S
PECOS          SUNNY     81  59  46 SE9       29.92F
$$

DALLAS/FORT WORTH METROPLEX

CITY           SKY/WX    TMP DP  RH WIND       PRES   REMARKS
DFW AIRPORT    CLEAR     84  67  56 S10       29.90F
FTW MEACHAM    CLEAR     85  68  56 S12       29.91S
DAL-EXECUTIVE  CLEAR     83  68  60 VRB5      29.91F
GRAND PRAIRIE  CLEAR     84  69  60 S6        29.93S
ADDISON        CLEAR     87  69  54 S7        29.93F
MESQUITE       SUNNY     79  68  69 S6        29.92F
LANCASTER      SUNNY     80  67  64 S3        29.93S
$$

NORTH CENTRAL TEXAS

CITY           SKY/WX    TMP DP  RH WIND       PRES   REMARKS
SHRMAN/DENISON SUNNY     82  71  69 S7        29.93F
GAINESVILLE    CLEAR     76  69  78 SE5       29.93F
BRIDGEPORT     NOT AVBL
DENTON         CLEAR     80  68  66 S8        29.90F
WAXAHACHIE     SUNNY     80  69  70 S5        29.94F
GRANBURY       SUNNY     82  68  61 SE6       29.92F
$$

WESTERN NORTH TEXAS

CITY           SKY/WX    TMP DP  RH WIND       PRES   REMARKS
WICHITA FALLS  CLEAR     79  66  64 S10       29.89F
VERNON         SUNNY     81  60  49 S8        29.90F
BRECKENRIDGE   SUNNY     82  65  55 S12       29.91F
COMANCHE       CLEAR     78  68  71 S8        29.95S
$$

CENTRAL AND SOUTH CENTRAL TEXAS

CITY           SKY/WX    TMP DP  RH WIND       PRES   REMARKS
AUSTIN/BERGSTM CLEAR     74  74 100 S3        29.95F
WACO           CLEAR     82  71  69 S13       29.93F
HILLSBORO      SUNNY     82  68  62 S8        29.93F
TEMPLE         CLEAR     79  68  69 S16       29.94S
KILLEEN-GRAY   CLEAR     79  72  78 S12       29.95F
FORT HOOD      CLEAR     80  72  77 S9        29.94S
GEORGETOWN     CLEAR     81  72  74 S9        29.95S
LAGO VISTA     FAIR      77  73  85 S9        29.98F
SAN MARCOS     CLOUDY    79  75  89 S7        29.96F
NEW BRAUNFELS  CLOUDY    79  76  90 S6        29.95S
RANDOLPH AFB   MOCLDY    76  75  96 SE3       29.96S
SAN ANTONIO    MOCLDY    79  73  82 S10       29.96F
STINSON        CLOUDY    78  75  90 SE6       29.93S
PLEASANTON     NOT AVBL
LA GRANGE      PTCLDY    78  76  96 CALM      29.93F
GIDDINGS       SUNNY     76  73  91 CALM      29.99F
$$

EAST TEXAS

CITY           SKY/WX    TMP DP  RH WIND       PRES   REMARKS
PARIS          CLEAR     81  72  74 S3        29.92F
CLARKSVILLE    NOT AVBL
TYLER          CLEAR     83  72  69 S9        29.94F
LONGVIEW       CLEAR     81  73  76 S7        29.93F
PALESTINE      SUNNY     81  73  74 S5        29.95F
NACOGDOCHES    CLEAR     75  72  88 CALM      29.95S
$$

TEXAS HILL COUNTRY AND EDWARDS PLATEAU

CITY           SKY/WX    TMP DP  RH WIND       PRES   REMARKS
LLANO          SUNNY     79  72  78 SE7       29.98S
HORSESHOE BAY  FAIR      77  71  81 S8        29.96S
KERRVILLE      CLEAR     74  70  87 CALM      29.99F
FREDERICKSBRG  CLEAR     74  69  83 CALM      29.99S
ROCKSPRINGS    MOSUNNY   77  72  83 SE13      30.01S
HONDO          MOCLDY    77  73  87 SE7       29.96F
UVALDE         SUNNY     78  72  84 E8        29.95S
DEL RIO        CLEAR     83  73  72 E13G22    29.89S
$$

SOUTHEAST TEXAS

CITY           SKY/WX    TMP DP  RH WIND       PRES   REMARKS
COLLEGE STN    CLEAR     79  74  84 S6        29.95F
CALDWELL       SUNNY     75  75 100 CALM      29.98F
CROCKETT       SUNNY     81  75  83 S5        29.98S
BRENHAM        PTCLDY    78  77  95 CALM      29.96F
HUNTSVILLE     CLEAR     80  74  81 S6        29.96F
CONROE         CLEAR     76  72  87 CALM      29.96F
HOUSTON BUSH   PTCLDY    78  76  93 CALM      29.95F
HOUSTON HOBBY  PTCLDY    79  75  87 CALM      29.94F
PERLAND        CLEAR     78  74  87 CALM      29.96F
WHARTON        SUNNY     74  73  96 SE3       29.95F
$$

THE UPPER TEXAS COAST

CITY           SKY/WX    TMP DP  RH WIND       PRES   REMARKS
ORANGE         SUNNY     75  75 100 CALM      29.97F
PORT ARTHUR    CLEAR     76  75  97 CALM      29.94F
GALVESTON      CLEAR     84  76  76 S9        29.96F
ANGLETON       PTCLDY    78  75  90 CALM      29.95S
BAY CITY       SUNNY     78  78  99 CALM      29.95S FOG
$$

TEXAS COASTAL BEND, RIO GRANDE PLAINS DEEP SOUTH TEXAS

CITY           SKY/WX    TMP DP  RH WIND       PRES   REMARKS
VICTORIA       MOCLDY    77  77 100 S3        29.95S FOG
BEEVILLE       FAIR      71  71 100 E3        29.94S FOG
ROCKPORT       PTCLDY    83  77  82 S9        29.93S
PORT ARANSAS   SUNNY     81  78  91 S8        29.93S
PORT LAVACA    SUNNY     77  75  94 S5        29.94F FOG
CORPUS CHRISTI PTCLDY    81  77  88 SE8       29.92F
KINGSVILLE NAS PTCLDY    82  80  94 SE12      29.92S
COTULLA        CLEAR     80  73  79 SE15      29.91F
LAREDO         CLEAR     81  73  76 SE10      29.91S
BROWNSVILLE    PTCLDY    81  78  91 S8        29.91S
PORT ISABEL    CLEAR     81  78  91 SE10      29.91S
HEBBRONVILLE     N/A     78  74  87 SE9       29.92F
MCALLEN        CLEAR     84  77  79 SE13      29.90F
WESLACO        CLOUDY    81  76  84 SE5       29.91S
FALFURRIAS     PTSUNNY   80  76  90 S6        29.91S
EDINBURG       PTSUNNY   82  76  83 SE8       29.90F
$$


USA.gov is the U.S. government's official web portal to all federal, state and local government web resources and services.